• In Romania
  • List of Countries
  • For 7 days
  • Water Temperature
  • Satellite Maps
  • Weather Map
  • Weather Widgets
  • user-avatar
    Login

    Hourly Weather Sydney

    Today, 30 April, Sunday

    Time Temperature Precipitation Wind Pressure Humidity
    00:00 +12°C° 0 mm 4 mps 765 mmHg 84%
    01:00 +11°C° 0 mm 4 mps 765 mmHg 86%
    02:00 +11°C° 0 mm 4 mps 765 mmHg 87%
    03:00 +11°C° 0 mm 4 mps 765 mmHg 88%
    04:00 +11°C° 0 mm 4 mps 765 mmHg 89%
    05:00 +11°C° 0 mm 4 mps 765 mmHg 89%
    06:00 +11°C° 0 mm 4 mps 766 mmHg 89%
    07:00 +11°C° 0 mm 4 mps 766 mmHg 90%
    08:00 +14°C° 0 mm 4 mps 766 mmHg 79%
    09:00 +17°C° 0 mm 4 mps 766 mmHg 68%
    10:00 +20°C° 0 mm 4 mps 766 mmHg 58%
    11:00 +21°C° 0 mm 4 mps 765 mmHg 55%
    12:00 +22°C° 0 mm 4 mps 765 mmHg 53%
    13:00 +24°C° 0 mm 3 mps 765 mmHg 50%
    14:00 +22°C° 0 mm 3 mps 764 mmHg 55%
    15:00 +22°C° 0 mm 3 mps 764 mmHg 60%
    16:00 +21°C° 0 mm 3 mps 764 mmHg 65%
    17:00 +19°C° 0 mm 2 mps 764 mmHg 75%
    18:00 +17°C° 0 mm 2 mps 765 mmHg 86%
    19:00 +15°C° 0 mm 1 mps 765 mmHg 96%
    20:00 +14°C° 0 mm 2 mps 765 mmHg 96%
    21:00 +14°C° 0 mm 2 mps 765 mmHg 96%
    22:00 +14°C° 0 mm 2 mps 765 mmHg 97%
    23:00 +14°C° 0 mm 2 mps 765 mmHg 97%

    Tomorrow, 1 May, Monday

    Time Temperature Precipitation Wind Pressure Humidity
    00:00 +13°C° 0 mm 2 mps 765 mmHg 98%
    01:00 +13°C° 0 mm 2 mps 764 mmHg 98%
    02:00 +13°C° 0 mm 2 mps 764 mmHg 98%
    03:00 +13°C° 0 mm 2 mps 764 mmHg 98%
    04:00 +12°C° 0 mm 2 mps 764 mmHg 98%
    05:00 +12°C° 0 mm 2 mps 764 mmHg 98%
    06:00 +12°C° 0 mm 2 mps 764 mmHg 98%
    07:00 +13°C° 0 mm 2 mps 764 mmHg 97%
    08:00 +14°C° 0 mm 3 mps 764 mmHg 87%
    09:00 +18°C° 0 mm 3 mps 764 mmHg 76%
    10:00 +20°C° 0 mm 4 mps 764 mmHg 66%
    11:00 +22°C° 0 mm 4 mps 763 mmHg 58%
    12:00 +23°C° 0 mm 4 mps 762 mmHg 50%
    13:00 +26°C° 0 mm 4 mps 761 mmHg 42%
    14:00 +26°C° 0 mm 4 mps 761 mmHg 44%
    15:00 +25°C° 0 mm 4 mps 761 mmHg 45%
    16:00 +25°C° 0 mm 4 mps 760 mmHg 47%
    17:00 +22°C° 0 mm 4 mps 761 mmHg 51%
    18:00 +20°C° 0 mm 4 mps 761 mmHg 56%
    19:00 +18°C° 0 mm 4 mps 761 mmHg 60%
    20:00 +17°C° 0 mm 4 mps 762 mmHg 63%
    21:00 +16°C° 0 mm 3 mps 762 mmHg 66%
    22:00 +14°C° 0 mm 3 mps 762 mmHg 69%
    23:00 +14°C° 0 mm 3 mps 762 mmHg 70%

    Day after tomorrow, 2 May, Tuesday

    Time Temperature Precipitation Wind Pressure Humidity
    00:00 +13°C° 0 mm 3 mps 762 mmHg 72%
    01:00 +14°C° 0 mm 2 mps 762 mmHg 74%
    02:00 +13°C° 0 mm 2 mps 762 mmHg 75%
    03:00 +12°C° 0 mm 3 mps 762 mmHg 77%
    04:00 +12°C° 0 mm 3 mps 761 mmHg 78%
    05:00 +13°C° 0 mm 2 mps 762 mmHg 78%
    06:00 +13°C° 0 mm 2 mps 762 mmHg 79%
    07:00 +13°C° 0 mm 2 mps 762 mmHg 79%
    08:00 +16°C° 0 mm 2 mps 763 mmHg 68%
    09:00 +19°C° 0 mm 2 mps 763 mmHg 57%
    10:00 +23°C° 0 mm 2 mps 763 mmHg 46%
    11:00 +24°C° 0 mm 1 mps 762 mmHg 42%
    12:00 +26°C° 0 mm 1 mps 762 mmHg 38%
    13:00 +27°C° 0 mm 1 mps 761 mmHg 35%
    14:00 +26°C° 0 mm 1 mps 761 mmHg 41%
    15:00 +24°C° 0 mm 2 mps 761 mmHg 46%
    16:00 +22°C° 0 mm 3 mps 761 mmHg 52%
    17:00 +21°C° 0 mm 3 mps 762 mmHg 58%
    18:00 +20°C° 0 mm 2 mps 762 mmHg 63%
    19:00 +18°C° 0 mm 2 mps 762 mmHg 69%
    20:00 +17°C° 0.2 mm 2 mps 763 mmHg 73%
    21:00 +17°C° 0.2 mm 2 mps 763 mmHg 78%
    22:00 +16°C° 0.2 mm 2 mps 764 mmHg 83%
    23:00 +16°C° 0.4 mm 3 mps 764 mmHg 83%

    3 May, Wednesday

    Time Temperature Precipitation Wind Pressure Humidity
    00:00 +15°C° 0.4 mm 4 mps 764 mmHg 83%
    01:00 +14°C° 0.4 mm 4 mps 764 mmHg 83%
    02:00 +14°C° 0.2 mm 5 mps 764 mmHg 84%
    03:00 +14°C° 0.2 mm 5 mps 764 mmHg 86%
    04:00 +14°C° 0.2 mm 6 mps 765 mmHg 87%
    05:00 +14°C° 0.2 mm 6 mps 765 mmHg 84%
    06:00 +14°C° 0.2 mm 6 mps 766 mmHg 81%
    07:00 +15°C° 0.2 mm 7 mps 766 mmHg 78%
    08:00 +15°C° 0.2 mm 7 mps 767 mmHg 75%
    09:00 +15°C° 0.2 mm 7 mps 767 mmHg 72%
    10:00 +16°C° 0.2 mm 7 mps 768 mmHg 70%
    11:00 +16°C° 0.2 mm 7 mps 768 mmHg 67%
    12:00 +17°C° 0.2 mm 7 mps 768 mmHg 65%
    13:00 +17°C° 0.2 mm 7 mps 767 mmHg 63%
    14:00 +17°C° 0.2 mm 7 mps 768 mmHg 64%
    15:00 +17°C° 0.2 mm 7 mps 768 mmHg 65%
    16:00 +16°C° 0.2 mm 7 mps 768 mmHg 67%
    17:00 +16°C° 0.2 mm 7 mps 769 mmHg 69%
    18:00 +15°C° 0.2 mm 6 mps 769 mmHg 72%
    19:00 +14°C° 0.2 mm 6 mps 770 mmHg 75%
    20:00 +14°C° 0.3 mm 6 mps 770 mmHg 77%
    21:00 +14°C° 0.3 mm 5 mps 771 mmHg 78%
    22:00 +14°C° 0.3 mm 5 mps 771 mmHg 79%
    23:00 +14°C° 0.1 mm 5 mps 771 mmHg 78%

    4 May, Thursday

    Time Temperature Precipitation Wind Pressure Humidity
    00:00 +14°C° 0.1 mm 5 mps 771 mmHg 77%
    01:00 +14°C° 0.1 mm 5 mps 771 mmHg 77%
    02:00 +13°C° 0 mm 4 mps 771 mmHg 78%
    03:00 +13°C° 0 mm 4 mps 771 mmHg 79%
    04:00 +13°C° 0 mm 4 mps 771 mmHg 80%
    05:00 +12°C° 0.1 mm 4 mps 771 mmHg 79%
    06:00 +12°C° 0.1 mm 4 mps 772 mmHg 79%
    07:00 +12°C° 0.1 mm 3 mps 772 mmHg 79%
    08:00 +14°C° 0.1 mm 3 mps 772 mmHg 75%
    09:00 +16°C° 0.1 mm 3 mps 773 mmHg 70%
    10:00 +17°C° 0.1 mm 3 mps 773 mmHg 66%
    11:00 +18°C° 0.3 mm 3 mps 772 mmHg 65%
    12:00 +19°C° 0.3 mm 3 mps 772 mmHg 63%
    13:00 +20°C° 0.3 mm 3 mps 771 mmHg 62%
    14:00 +19°C° 0.2 mm 3 mps 771 mmHg 67%
    15:00 +18°C° 0.2 mm 3 mps 771 mmHg 71%
    16:00 +18°C° 0.2 mm 3 mps 771 mmHg 76%
    17:00 +16°C° 0.2 mm 3 mps 772 mmHg 82%
    18:00 +14°C° 0.2 mm 3 mps 772 mmHg 87%
    19:00 +13°C° 0.2 mm 3 mps 773 mmHg 93%
    20:00 +13°C° 0.4 mm 3 mps 773 mmHg 93%
    21:00 +13°C° 0.4 mm 3 mps 773 mmHg 94%
    22:00 +13°C° 0.4 mm 3 mps 773 mmHg 95%
    23:00 +13°C° 0.3 mm 3 mps 773 mmHg 95%

    5 May, Friday

    Time Temperature Precipitation Wind Pressure Humidity
    00:00 +13°C° 0.3 mm 3 mps 773 mmHg 95%
    01:00 +13°C° 0.3 mm 3 mps 773 mmHg 95%
    02:00 +13°C° 0.3 mm 3 mps 773 mmHg 95%
    03:00 +13°C° 0.3 mm 2 mps 773 mmHg 95%
    04:00 +13°C° 0.3 mm 2 mps 773 mmHg 96%
    05:00 +13°C° 0.3 mm 2 mps 773 mmHg 96%
    06:00 +13°C° 0.3 mm 2 mps 773 mmHg 96%
    07:00 +13°C° 0.3 mm 2 mps 773 mmHg 96%
    08:00 +15°C° 0.3 mm 2 mps 773 mmHg 91%
    09:00 +18°C° 0.3 mm 1 mps 774 mmHg 85%
    10:00 +19°C° 0.3 mm 1 mps 774 mmHg 80%
    11:00 +20°C° 0.2 mm 1 mps 773 mmHg 77%
    12:00 +19°C° 0.2 mm 2 mps 772 mmHg 74%
    13:00 +19°C° 0.2 mm 2 mps 772 mmHg 71%
    14:00 +19°C° 0 mm 2 mps 772 mmHg 71%
    15:00 +19°C° 0 mm 2 mps 771 mmHg 71%
    16:00 +19°C° 0 mm 2 mps 771 mmHg 70%
    17:00 +17°C° 0 mm 2 mps 772 mmHg 78%
    18:00 +15°C° 0 mm 2 mps 772 mmHg 86%
    19:00 +13°C° 0 mm 2 mps 772 mmHg 94%
    20:00 +13°C° 0 mm 2 mps 772 mmHg 95%
    21:00 +12°C° 0 mm 2 mps 772 mmHg 95%
    22:00 +12°C° 0 mm 2 mps 772 mmHg 96%
    23:00 +12°C° 0 mm 2 mps 772 mmHg 96%
    Show more